Regional Weather Roundup
Issued by NWS

Home | Current Version | Previous Version | Graphics & Text | Print | Product List | Glossary Off
Versions: 1 2 3 4 5 6 7 8 9 10 11 12 13 14 15 16 17 18 19 20 21 22 23 24 25 26 27 28 29 30 31 32 33 34 35 36 37 38 39 40 41 42 43 44 45 46 47 48 49 50

573
ASUS43 KMKX 011911
RWRWI

WISCONSIN REGIONAL WEATHER ROUNDUP
NATIONAL WEATHER SERVICE MILWAUKEE/SULLIVAN WI
200 PM CDT SUN MAY 01 2016

NOTE: "FAIR" INDICATES FEW OR NO CLOUDS BELOW 12,000 FEET WITH NO
SIGNIFICANT WEATHER AND/OR OBSTRUCTIONS TO VISIBILITY.

WIZ001-002-006>008-014>016-023>028-012000-
NORTHWEST WISCONSIN

CITY           SKY/WX    TMP DP  RH WIND       PRES   REMARKS
SUPERIOR ARPT  SUNNY     46  37  69 NE10      30.23F
ASHLAND        SUNNY     52  40  63 NE15      30.21F
HAYWARD        SUNNY     55  34  45 N16G22    30.15F
SIREN          SUNNY     58  34  39 NE12G18   30.14F
CUMBERLAND     SUNNY     57  32  38 E16       30.12S
RICE LAKE      SUNNY     59  33  37 N17G23    30.12F
CHETEK         MOSUNNY   60  37  42 E6G18     30.10F
LADYSMITH      MOSUNNY   60  31  33 NE15      30.11F
EAU CLAIRE     MOSUNNY   61  32  33 NE8G17    30.08F
MENOMONIE      PTSUNNY   62  32  32 NE13G18   30.09F
NEW RICHMOND   MOSUNNY   58  33  37 NE15      30.11F
OSCEOLA        SUNNY     59  35  41 NE14G21   30.15F
$$

WIZ003>005-009-010-017-018-012000-
NORTH CENTRAL WISCONSIN

CITY           SKY/WX    TMP DP  RH WIND       PRES   REMARKS
MANITOWISH WTR MOSUNNY   57  32  38 NE8G16    30.11F
ARBOR VITAE    PTSUNNY   59  29  32 NE9G18    30.10F
WOODRUFF       PTSUNNY   59  29  32 NE9G18    30.10F
RHINELANDER    PTSUNNY   61  27  27 NE10G18   30.09F
EAGLE RIVER    MOSUNNY   59  24  26 E10G16    30.10S
LAND O LAKES   CLOUDY    57  29  34 CALM      30.12F
PHILLIPS       PTSUNNY   58  31  35 NE15      30.09F
TOMAHAWK       PTSUNNY   62  28  26 E13       30.08F
MEDFORD        PTSUNNY   61  33  35 E12       30.07F
MERRILL        PTSUNNY   61  30  31 E13       30.07F
$$

WIZ029-030-035-036-043>047-012000-
CENTRAL WISCONSIN

CITY           SKY/WX    TMP DP  RH WIND       PRES   REMARKS
WAUSAU         PTSUNNY   62  30  29 NE14      30.05F
MOSINEE        MOSUNNY   61  30  31 E15       30.08F
MARSHFIELD     CLOUDY    58  29  33 E10       30.07F
STEVENS POINT  CLOUDY    55  30  39 E12G17    30.09S
WAUPACA        CLOUDY    58  37  43 E10       30.09S
WAUTOMA        PTSUNNY   57  37  47 NE16G26   30.05F
WISC RAPIDS    PTSUNNY   58  33  39 E9        30.09F
CAMP DOUGLAS   PTSUNNY   54  46  76 E15G21    30.07F
$$

WIZ011>013-019>022-031-037>040-048>050-012000-
NORTHEAST WISCONSIN

CITY           SKY/WX    TMP DP  RH WIND       PRES   REMARKS
ANTIGO         PTSUNNY   58  31  36 NE9       30.08S
SHAWANO        MOSUNNY   60  35  40 E15       30.10R
OCONTO         SUNNY     55  38  52 E13       30.11S
STURGEON BAY   MOSUNNY   54  36  50 E14G23    30.13S
GREEN BAY      MOSUNNY   55  40  56 NE18      30.09F
MANITOWOC      MOSUNNY   53  39  59 NE16G28   30.08S
APPLETON       PTSUNNY   55  32  41 NE15G23   30.06F
CLINTONVILLE   CLOUDY    59  32  36 NE13G23   30.09S
OSHKOSH        PTSUNNY   56  40  55 NE17      30.06F
$$

WIZ032>034-041-042-053>061-012000-
SOUTHWEST WISCONSIN

CITY           SKY/WX    TMP DP  RH WIND       PRES   REMARKS
LA CROSSE      CLOUDY    55  37  50 NE9       30.07S
SPARTA         CLOUDY    54  40  60 NE10      30.08F
VIROQUA        CLOUDY    51  41  69 NE12      30.06S
BOSCOBEL       CLOUDY    52  43  71 VRB7      30.05F
PRAIRIE DU CHI CLOUDY    51  41  69 NE8       30.04S
PLATTEVILLE    CLOUDY    53  47  80 NE15      30.00F
$$

WIZ056-057-062-063-064-067-068-012000-
SOUTH CENTRAL WISCONSIN

CITY           SKY/WX    TMP DP  RH WIND       PRES   REMARKS
REEDSBURG      CLOUDY    52  43  70 NE7       30.05F
BARABOO/DELLS  CLOUDY    52  41  67 NE9       30.05S
LONE ROCK      CLOUDY    52  43  71 NE7       30.05F
MINERAL POINT  CLOUDY    52  45  76 NE14      30.02F
MADISON        CLOUDY    55  44  66 NE14      30.03F
MIDDLETON      CLOUDY    54  45  71 E10G20    30.03F
WATERTOWN      PTSUNNY   56  40  56 NE15G22   30.02F
MONROE         CLOUDY    52  46  82 NE13      30.00F
JANESVILLE     CLOUDY    57  46  67 E14G20    30.00F
$$

WIZ051-052-058>065-066-070>072-012000-
SOUTHEAST WISCONSIN

CITY           SKY/WX    TMP DP  RH WIND       PRES   REMARKS
MILWAUKEE      PTSUNNY   46  39  76 N16       30.04S
WAUKESHA       MOSUNNY   52  39  62 NE12G23   30.03F
MILWAUKEE/TIMM CLOUDY    54  39  58 NE10G21   30.04F
RACINE         CLOUDY    45  38  76 N16       30.04F
BURLINGTON     CLOUDY    49  42  78 E14       30.02S
KENOSHA        CLOUDY    49  42  77 NE14      30.02S
FOND DU LAC    CLOUDY    58  40  51 NE18G26   30.05F
SHEBOYGAN      PTSUNNY   53  40  61 NE22      30.06S
WEST BEND      CLOUDY    54  41  62 NE16G22   30.03F
JUNEAU         PTSUNNY   56  40  54 N16G24    30.04S
$$

LSZ147-162-012000-
LAKE SUPERIOR

STATION/POSITION TIME  TEMP    WIND        PRES    WAVE
                       AIR SEA DIR/SP/G            HT/PER
                 (UTC) (F)     (DEG/KT/KT) (MB)    (FT/S)
W MID LAKE BUOY  1850   38 37   50/  8/ 10 1024.2F   3/ 6
DEVILS ISLAND    1800   39      70/ 11/ 13 1024.9F
SAXON HARBOR     1800   39      30/ 10/ 13 1023.0F
$$

LMZ867-665-643>646-012000-
LAKE MICHIGAN

STATION/POSITION TIME  TEMP    WIND        PRES    WAVE
                       AIR SEA DIR/SP/G            HT/PER
                 (UTC) (F)     (DEG/KT/KT) (MB)    (FT/S)
CHAMBERS ISLAND  1800   44      10/  9/ 11 1020.3F
N MID LAKE BUOY  1850   41 39   20/  6/  8 1020.3F   1
NORTHPORT PIER   1800   44      70/ 10/ 12 1020.3F
ALGOMA LAKESHORE 1700           30/ 10/ 12   N/A
KEWAUNEE LAKESHO 1800   46      30/ 12/ 16 1018.3F
SHEBOYGAN LAKESH 1900   43      20/ 16/ 18 1018.9F
PORT WASHINGTON  1840   49      40/ 17/ 20 1018.3S
S MID LAKE BUOY  1850   42 40   20/ 10/ 10 1016.0F   2/ 4
KENOSHA   LAKESH 1900   44      20/ 17/ 21 1016.3F
$$

TC  - TEMPERATURE IN CELSIUS
VSB - VISIBILITY IN STATUTE MILES
WCI - WIND CHILL INDEX
HX  - HEAT INDEX





USA.gov is the U.S. government's official web portal to all federal, state and local government web resources and services.